Home   Weather   Toronto   Past weeks

Flag for Canada Past Weather in Toronto, Ontario, Canada — Yesterday and Last 2 Weeks

Now
66 °F

Passing clouds.


Feels Like: 66 °F
Forecast: N/A
Wind: 9 mph from Northeast

Location: Toronto Pearson International Airport

Current Time: Sep 24, 2016 at 4:57:44 PM

Latest Report: Sep 24, 2016 at 4:00 PM


Visibility: 15 mi

Pressure: 30.23 "Hg

Humidity: 35%

Dew Point: 37 °F

Location of TorontoLocation

Past Weather in Toronto — Graph

°F

Toronto Temperature Yesterday

Maximum temperature yesterday: 75 °F (at 12:00 AM)
Minimum temperature yesterday: 57 °F (at 12:47 PM)
Average temperature yesterday: 64 °F

High & Low Weather Summary for the Past Weeks

 TemperatureHumidityPressure
High84 °F (Sep 10, 3:00 PM)94% (Sep 10, 11:00 AM)30.37 "Hg (Sep 10, 11:00 AM)
Low48 °F (Sep 24, 5:00 AM)22% (Sep 20, 7:00 PM)29.67 "Hg (Sep 10, 6:00 PM)
Average68 °F66%30.08 "Hg
* Reported Sep 9 3:00 PM — Sep 24 3:00 PM, Toronto, Weather by CustomWeather, © 2016

Note: Actual official high and low records may vary slightly from our data, if they occured in-between our weather recording intervals... More about our weather records

Advertising

Toronto Weather History for the Previous 24 Hours

Scroll right to see more
 ConditionsComfort  
Time TempWeatherWind HumidityBarometerVisibility
3:00 PM
Sat, Sep 24
64 °FSunny.3 mph34%30.23 "Hg15 mi
2:00 PM63 °FSunny.6 mph34%30.25 "Hg15 mi
1:00 PM63 °FPassing clouds.8 mph37%30.27 "Hg15 mi
12:00 PM61 °FPassing clouds.8 mph39%30.29 "Hg15 mi
11:00 AM59 °FPassing clouds.12 mph45%30.29 "Hg15 mi
10:00 AM55 °FPassing clouds.8 mph63%30.29 "Hg15 mi
9:00 AM52 °FPassing clouds.8 mph77%30.29 "Hg15 mi
8:00 AM48 °FPassing clouds.9 mph82%30.28 "Hg15 mi
7:00 AM48 °FPassing clouds.13 mph82%30.26 "Hg15 mi
6:00 AM48 °FPassing clouds.7 mph82%30.25 "Hg15 mi
5:00 AM48 °FPassing clouds.9 mph82%30.23 "Hg15 mi
4:00 AM50 °FPassing clouds.10 mph82%30.22 "Hg15 mi
3:00 AM50 °FPassing clouds.9 mph82%30.21 "Hg15 mi
2:00 AM52 °FPassing clouds.8 mph77%30.22 "Hg15 mi
1:00 AM54 °FPassing clouds.10 mph72%30.20 "Hg15 mi
12:00 AM55 °FPassing clouds.10 mph72%30.20 "Hg15 mi
11:00 PM
Fri, Sep 23
57 °FPassing clouds.9 mph67%30.19 "Hg15 mi
10:00 PM57 °FPassing clouds.7 mph72%30.18 "Hg15 mi
9:00 PM59 °FPassing clouds.6 mph68%30.16 "Hg15 mi
8:00 PM63 °FPassing clouds.8 mph59%30.15 "Hg15 mi
7:00 PM63 °FPartly sunny.6 mph64%30.14 "Hg15 mi
6:00 PM63 °FPartly sunny.8 mph64%30.14 "Hg15 mi
5:00 PM61 °FMostly cloudy.3 mph72%30.13 "Hg15 mi
4:00 PM61 °FOvercast.6 mph72%30.13 "Hg15 mi
Weather by CustomWeather, © 2016

See weather overviewHow to use our weather pages